Time,TemperatureF,DewpointF,PressureIn,WindDirection,WindDirectionDegrees,WindSpeedMPH,WindSpeedGustMPH,Humidity,HourlyPrecipIn,Conditions,Clouds,dailyrainin,SoftwareType,DateUTC
2013-04-05 00:01:00,49.1,49.0,29.92,West,261,1.0,5.0,98,0.00,,,0.00,weatherlink.com 1.10,2013-04-05 04:01:00,
2013-04-05 00:16:00,48.8,48.0,29.91,WNW,288,2.0,2.0,98,0.00,,,0.00,weatherlink.com 1.10,2013-04-05 04:16:00,
2013-04-05 00:31:00,48.6,48.0,29.90,West,261,0.0,3.0,98,0.00,,,0.00,weatherlink.com 1.10,2013-04-05 04:31:00,
2013-04-05 00:46:00,48.3,48.0,29.91,WSW,248,2.0,5.0,97,0.00,,,0.00,weatherlink.com 1.10,2013-04-05 04:46:00,
2013-04-05 01:16:00,48.0,47.0,29.90,WNW,294,1.0,3.0,97,0.00,,,0.00,weatherlink.com 1.10,2013-04-05 05:16:00,
2013-04-05 02:16:00,47.7,47.0,29.91,West,277,1.0,3.0,97,0.00,,,0.00,weatherlink.com 1.10,2013-04-05 06:16:00,
2013-04-05 02:31:00,47.4,47.0,29.91,WSW,257,1.0,3.0,97,0.00,,,0.00,weatherlink.com 1.10,2013-04-05 06:31:00,
2013-04-05 02:46:00,47.2,46.0,29.92,WSW,257,1.0,3.0,97,0.00,,,0.00,weatherlink.com 1.10,2013-04-05 06:46:00,
2013-04-05 03:01:00,47.0,46.0,29.92,East,91,1.0,2.0,97,0.00,,,0.00,weatherlink.com 1.10,2013-04-05 07:01:00,
2013-04-05 03:16:00,46.7,46.0,29.90,SW,221,0.0,2.0,97,0.00,,,0.00,weatherlink.com 1.10,2013-04-05 07:16:00,
2013-04-05 03:46:00,46.7,46.0,29.91,WSW,239,1.0,3.0,97,0.00,,,0.00,weatherlink.com 1.10,2013-04-05 07:46:00,
2013-04-05 04:01:00,46.5,46.0,29.91,West,259,1.0,2.0,97,0.02,,,0.02,weatherlink.com 1.10,2013-04-05 08:01:00,
2013-04-05 04:31:00,46.3,46.0,29.89,NW,304,0.0,2.0,98,0.21,,,0.21,weatherlink.com 1.10,2013-04-05 08:31:00,
2013-04-05 04:46:00,46.1,46.0,29.90,ENE,64,1.0,3.0,98,0.27,,,0.27,weatherlink.com 1.10,2013-04-05 08:46:00,
2013-04-05 05:01:00,46.1,46.0,29.87,East,85,0.0,1.0,98,0.27,,,0.29,weatherlink.com 1.10,2013-04-05 09:01:00,
2013-04-05 05:16:00,46.2,46.0,29.89,NE,43,0.0,2.0,98,0.21,,,0.33,weatherlink.com 1.10,2013-04-05 09:16:00,
2013-04-05 05:31:00,46.1,46.0,29.87,ENE,63,2.0,3.0,98,0.17,,,0.38,weatherlink.com 1.10,2013-04-05 09:31:00,
2013-04-05 05:47:00,46.1,46.0,29.86,WSW,248,1.0,2.0,98,0.10,,,0.38,weatherlink.com 1.10,2013-04-05 09:47:00,
2013-04-05 06:02:00,46.1,46.0,29.86,West,270,0.0,3.0,98,0.10,,,0.39,weatherlink.com 1.10,2013-04-05 10:02:00,
2013-04-05 06:17:00,46.1,46.0,29.84,NNW,338,0.0,1.0,99,0.05,,,0.39,weatherlink.com 1.10,2013-04-05 10:17:00,
2013-04-05 06:32:00,46.1,46.0,29.87,West,281,2.0,2.0,99,0.01,,,0.39,weatherlink.com 1.10,2013-04-05 10:32:00,
2013-04-05 06:47:00,46.1,46.0,29.88,NW,315,1.0,3.0,99,0.01,,,0.39,weatherlink.com 1.10,2013-04-05 10:47:00,
2013-04-05 07:02:00,45.8,45.0,29.89,WNW,288,1.0,4.0,98,0.00,,,0.39,weatherlink.com 1.10,2013-04-05 11:02:00,
2013-04-05 07:17:00,45.7,45.0,29.90,WSW,256,1.0,4.0,98,0.00,,,0.39,weatherlink.com 1.10,2013-04-05 11:17:00,
2013-04-05 07:32:00,45.5,45.0,29.92,NW,313,0.0,3.0,98,0.00,,,0.39,weatherlink.com 1.10,2013-04-05 11:32:00,
2013-04-05 07:47:00,45.4,45.0,29.95,WSW,250,0.0,2.0,98,0.00,,,0.39,weatherlink.com 1.10,2013-04-05 11:47:00,
2013-04-05 08:02:00,45.5,45.0,29.94,WSW,250,0.0,2.0,98,0.00,,,0.39,weatherlink.com 1.10,2013-04-05 12:02:00,
2013-04-05 08:17:00,45.5,45.0,29.95,WSW,250,0.0,2.0,98,0.01,,,0.40,weatherlink.com 1.10,2013-04-05 12:17:00,
2013-04-05 08:32:00,45.5,45.0,29.95,WNW,295,0.0,2.0,98,0.01,,,0.40,weatherlink.com 1.10,2013-04-05 12:32:00,
2013-04-05 09:02:00,45.5,45.0,29.94,NE,49,0.0,2.0,98,0.01,,,0.40,weatherlink.com 1.10,2013-04-05 13:02:00,
2013-04-05 09:17:00,45.3,45.0,29.94,NW,304,0.0,3.0,98,0.00,,,0.40,weatherlink.com 1.10,2013-04-05 13:17:00,
2013-04-05 09:32:00,45.3,45.0,29.94,NW,310,0.0,4.0,98,0.00,,,0.40,weatherlink.com 1.10,2013-04-05 13:32:00,
2013-04-05 09:47:00,45.3,45.0,29.95,WNW,284,1.0,2.0,98,0.00,,,0.40,weatherlink.com 1.10,2013-04-05 13:47:00,
2013-04-05 10:02:00,45.7,45.0,29.94,ENE,76,3.0,3.0,98,0.00,,,0.40,weatherlink.com 1.10,2013-04-05 14:02:00,
2013-04-05 10:18:00,45.6,45.0,29.94,NW,304,1.0,4.0,96,0.00,,,0.40,weatherlink.com 1.10,2013-04-05 14:18:00,
2013-04-05 10:32:00,45.3,45.0,29.92,ENE,71,1.0,6.0,97,0.00,,,0.40,weatherlink.com 1.10,2013-04-05 14:32:00,
2013-04-05 10:47:00,45.1,44.0,29.93,NW,325,1.0,4.0,97,0.00,,,0.40,weatherlink.com 1.10,2013-04-05 14:47:00,
2013-04-05 11:02:00,45.4,45.0,29.95,NNE,15,1.0,4.0,97,0.00,,,0.40,weatherlink.com 1.10,2013-04-05 15:02:00,
2013-04-05 11:17:00,46.1,46.0,29.95,SW,235,3.0,4.0,98,0.00,,,0.40,weatherlink.com 1.10,2013-04-05 15:17:00,
2013-04-05 11:47:00,46.3,45.0,29.98,West,268,1.0,4.0,95,0.00,,,0.40,weatherlink.com 1.10,2013-04-05 15:47:00,
2013-04-05 12:02:00,46.6,45.0,29.98,NNW,331,0.0,2.0,95,0.00,,,0.40,weatherlink.com 1.10,2013-04-05 16:02:00,
2013-04-05 12:17:00,47.6,46.0,29.98,NE,50,1.0,4.0,95,0.00,,,0.40,weatherlink.com 1.10,2013-04-05 16:17:00,
2013-04-05 12:32:00,48.7,47.0,29.97,NE,48,2.0,3.0,93,0.00,,,0.40,weatherlink.com 1.10,2013-04-05 16:32:00,
2013-04-05 12:47:00,47.8,46.0,29.96,North,350,1.0,3.0,93,0.00,,,0.40,weatherlink.com 1.10,2013-04-05 16:47:00,
2013-04-05 13:02:00,48.9,47.0,29.95,ENE,59,2.0,3.0,92,0.00,,,0.40,weatherlink.com 1.10,2013-04-05 17:02:00,
2013-04-05 13:17:00,50.3,48.0,29.95,NE,50,2.0,4.0,90,0.00,,,0.40,weatherlink.com 1.10,2013-04-05 17:17:00,
2013-04-05 13:32:00,49.6,47.0,29.95,North,5,0.0,4.0,89,0.00,,,0.40,weatherlink.com 1.10,2013-04-05 17:32:00,
2013-04-05 13:47:00,49.2,47.0,29.95,WSW,252,3.0,3.0,90,0.00,,,0.40,weatherlink.com 1.10,2013-04-05 17:47:00,
2013-04-05 14:02:00,48.8,46.0,29.94,WSW,239,1.0,2.0,90,0.00,,,0.40,weatherlink.com 1.10,2013-04-05 18:02:00,
2013-04-05 14:32:00,48.9,47.0,29.93,SSW,207,0.0,2.0,92,0.00,,,0.40,weatherlink.com 1.10,2013-04-05 18:32:00,
2013-04-05 14:47:00,50.7,48.0,29.92,WNW,297,1.0,3.0,91,0.00,,,0.40,weatherlink.com 1.10,2013-04-05 18:47:00,
2013-04-05 15:02:00,51.7,49.0,29.92,North,11,1.0,5.0,90,0.00,,,0.40,weatherlink.com 1.10,2013-04-05 19:02:00,
2013-04-05 15:17:00,52.7,49.0,29.92,NNW,342,1.0,3.0,86,0.00,,,0.40,weatherlink.com 1.10,2013-04-05 19:17:00,
2013-04-05 15:32:00,51.7,48.0,29.92,East,83,1.0,3.0,86,0.00,,,0.40,weatherlink.com 1.10,2013-04-05 19:32:00,
2013-04-05 15:47:00,52.4,48.0,29.91,ENE,68,0.0,3.0,85,0.00,,,0.40,weatherlink.com 1.10,2013-04-05 19:47:00,
2013-04-05 16:02:00,55.9,50.0,29.90,East,82,1.0,5.0,79,0.00,,,0.40,weatherlink.com 1.10,2013-04-05 20:02:00,
2013-04-05 16:18:00,57.2,51.0,29.90,East,80,5.0,5.0,79,0.00,,,0.40,weatherlink.com 1.10,2013-04-05 20:18:00,
2013-04-05 16:32:00,56.9,50.0,29.91,ESE,110,1.0,3.0,78,0.00,,,0.40,weatherlink.com 1.10,2013-04-05 20:32:00,
2013-04-05 16:48:00,57.0,50.0,29.91,NE,55,1.0,3.0,78,0.00,,,0.40,weatherlink.com 1.10,2013-04-05 20:48:00,
2013-04-05 17:03:00,56.6,50.0,29.91,ENE,65,0.0,3.0,79,0.00,,,0.40,weatherlink.com 1.10,2013-04-05 21:03:00,
2013-04-05 17:18:00,58.2,51.0,29.92,ENE,63,0.0,3.0,77,0.00,,,0.40,weatherlink.com 1.10,2013-04-05 21:18:00,
2013-04-05 17:48:00,58.9,51.0,29.93,NW,310,1.0,2.0,75,0.00,,,0.40,weatherlink.com 1.10,2013-04-05 21:48:00,
2013-04-05 18:18:00,58.4,51.0,29.94,West,278,0.0,2.0,76,0.00,,,0.40,weatherlink.com 1.10,2013-04-05 22:18:00,
2013-04-05 18:33:00,58.1,51.0,29.94,WNW,302,1.0,2.0,76,0.00,,,0.40,weatherlink.com 1.10,2013-04-05 22:33:00,
2013-04-05 18:48:00,57.8,51.0,29.94,West,269,1.0,2.0,78,0.00,,,0.40,weatherlink.com 1.10,2013-04-05 22:48:00,
2013-04-05 19:03:00,57.4,51.0,29.95,WSW,238,0.0,3.0,78,0.00,,,0.40,weatherlink.com 1.10,2013-04-05 23:03:00,
2013-04-05 19:18:00,57.0,51.0,29.95,WNW,286,1.0,2.0,79,0.00,,,0.40,weatherlink.com 1.10,2013-04-05 23:18:00,
2013-04-05 19:33:00,56.6,51.0,29.96,ENE,59,0.0,7.0,81,0.00,,,0.40,weatherlink.com 1.10,2013-04-05 23:33:00,
2013-04-05 19:48:00,56.1,50.0,29.96,WNW,298,0.0,2.0,80,0.00,,,0.40,weatherlink.com 1.10,2013-04-05 23:48:00,
2013-04-05 20:03:00,55.8,50.0,29.97,SW,236,0.0,3.0,81,0.00,,,0.40,weatherlink.com 1.10,2013-04-06 00:03:00,
2013-04-05 20:18:00,55.5,50.0,29.98,West,269,0.0,0.0,83,0.00,,,0.40,weatherlink.com 1.10,2013-04-06 00:18:00,
2013-04-05 20:33:00,55.2,51.0,29.98,West,269,0.0,0.0,85,0.00,,,0.40,weatherlink.com 1.10,2013-04-06 00:33:00,
2013-04-05 20:48:00,54.9,51.0,29.99,West,269,0.0,0.0,85,0.00,,,0.40,weatherlink.com 1.10,2013-04-06 00:48:00,
2013-04-05 21:03:00,54.6,51.0,30.00,West,269,0.0,0.0,87,0.00,,,0.40,weatherlink.com 1.10,2013-04-06 01:03:00,
2013-04-05 21:18:00,54.6,51.0,30.01,West,269,0.0,0.0,87,0.00,,,0.40,weatherlink.com 1.10,2013-04-06 01:18:00,
2013-04-05 21:33:00,54.5,51.0,30.01,West,269,0.0,1.0,87,0.00,,,0.40,weatherlink.com 1.10,2013-04-06 01:33:00,
2013-04-05 21:48:00,54.3,51.0,30.02,West,269,0.0,0.0,87,0.00,,,0.40,weatherlink.com 1.10,2013-04-06 01:48:00,
2013-04-05 22:03:00,53.2,50.0,30.02,West,269,0.0,0.0,89,0.00,,,0.40,weatherlink.com 1.10,2013-04-06 02:03:00,
2013-04-05 22:18:00,52.1,50.0,30.03,West,269,0.0,0.0,92,0.00,,,0.40,weatherlink.com 1.10,2013-04-06 02:18:00,
2013-04-05 22:33:00,51.1,49.0,30.03,West,269,0.0,1.0,93,0.00,,,0.40,weatherlink.com 1.10,2013-04-06 02:33:00,
2013-04-05 22:48:00,49.8,48.0,30.03,West,269,0.0,1.0,94,0.00,,,0.40,weatherlink.com 1.10,2013-04-06 02:48:00,
2013-04-05 23:03:00,49.1,48.0,30.04,West,269,1.0,1.0,95,0.00,,,0.40,weatherlink.com 1.10,2013-04-06 03:03:00,
2013-04-05 23:18:00,48.4,47.0,30.04,West,269,0.0,1.0,96,0.00,,,0.40,weatherlink.com 1.10,2013-04-06 03:18:00,
2013-04-05 23:33:00,47.9,47.0,30.04,West,269,0.0,1.0,96,0.00,,,0.40,weatherlink.com 1.10,2013-04-06 03:33:00,
2013-04-05 23:48:00,47.2,46.0,30.03,West,269,0.0,1.0,97,0.00,,,0.40,weatherlink.com 1.10,2013-04-06 03:48:00,